When you browse on this site, cookies collect data to enhance your experience and personalize the content and advertising you see.
Visit our Privacy Policy to learn more. By continuing to use the site, you agree to this use of cookies and data.
  • In Portugal
  • List of Countries
  • For 7 days
  • Water Temperature
  • Satellite Maps
  • Weather Map
  • Weather Widgets
  • user-avatar
    Login

    Hourly Weather Netesma

    Today, 24 May, Friday

    Time Temperature Precipitation Wind Pressure Humidity
    00:00 +10°C° 0 mm 3 mps 738 mmHg 92%
    01:00 +10°C° 0 mm 3 mps 738 mmHg 90%
    02:00 +10°C° 0 mm 2 mps 738 mmHg 91%
    03:00 +9°C° 0 mm 2 mps 738 mmHg 89%
    04:00 +9°C° 0 mm 3 mps 738 mmHg 87%
    05:00 +9°C° 0 mm 3 mps 738 mmHg 84%
    06:00 +9°C° 0 mm 3 mps 739 mmHg 81%
    07:00 +10°C° 0 mm 2 mps 739 mmHg 77%
    08:00 +12°C° 0 mm 2 mps 739 mmHg 73%
    09:00 +13°C° 0 mm 2 mps 739 mmHg 70%
    10:00 +14°C° 0 mm 2 mps 739 mmHg 68%
    11:00 +16°C° 0 mm 2 mps 739 mmHg 65%
    12:00 +17°C° 0 mm 2 mps 739 mmHg 62%
    13:00 +18°C° 0 mm 2 mps 739 mmHg 58%
    14:00 +20°C° 0 mm 2 mps 739 mmHg 55%
    15:00 +19°C° 0 mm 3 mps 738 mmHg 58%
    16:00 +19°C° 0 mm 3 mps 738 mmHg 62%
    17:00 +19°C° 0 mm 3 mps 738 mmHg 65%
    18:00 +17°C° 0 mm 2 mps 738 mmHg 73%
    19:00 +16°C° 0 mm 2 mps 738 mmHg 80%
    20:00 +15°C° 0 mm 2 mps 737 mmHg 88%
    21:00 +15°C° 0 mm 2 mps 737 mmHg 88%
    22:00 +15°C° 0 mm 2 mps 737 mmHg 89%
    23:00 +15°C° 0 mm 2 mps 737 mmHg 90%

    Tomorrow, 25 May, Saturday

    Time Temperature Precipitation Wind Pressure Humidity
    00:00 +15°C° 0 mm 2 mps 737 mmHg 92%
    01:00 +14°C° 0 mm 2 mps 737 mmHg 94%
    02:00 +14°C° 0 mm 2 mps 737 mmHg 95%
    03:00 +14°C° 0 mm 2 mps 736 mmHg 95%
    04:00 +14°C° 0 mm 2 mps 736 mmHg 95%
    05:00 +14°C° 0 mm 2 mps 736 mmHg 95%
    06:00 +15°C° 0 mm 2 mps 736 mmHg 92%
    07:00 +15°C° 0 mm 2 mps 735 mmHg 89%
    08:00 +16°C° 0 mm 2 mps 735 mmHg 86%
    09:00 +16°C° 0.1 mm 2 mps 735 mmHg 86%
    10:00 +16°C° 0.1 mm 2 mps 734 mmHg 86%
    11:00 +16°C° 0.1 mm 2 mps 734 mmHg 86%
    12:00 +17°C° 0.2 mm 2 mps 734 mmHg 84%
    13:00 +18°C° 0.2 mm 3 mps 733 mmHg 82%
    14:00 +19°C° 0.2 mm 3 mps 733 mmHg 79%
    15:00 +18°C° 0.7 mm 3 mps 733 mmHg 82%
    16:00 +18°C° 0.7 mm 3 mps 732 mmHg 85%
    17:00 +18°C° 0.7 mm 3 mps 732 mmHg 88%
    18:00 +17°C° 0.7 mm 2 mps 732 mmHg 91%
    19:00 +16°C° 0.7 mm 2 mps 732 mmHg 93%
    20:00 +15°C° 0.7 mm 2 mps 731 mmHg 96%
    21:00 +14°C° 0 mm 2 mps 732 mmHg 96%
    22:00 +13°C° 0 mm 2 mps 732 mmHg 96%
    23:00 +13°C° 0 mm 2 mps 732 mmHg 96%

    Day after tomorrow, 26 May, Sunday

    Time Temperature Precipitation Wind Pressure Humidity
    00:00 +12°C° 0 mm 2 mps 732 mmHg 97%
    01:00 +10°C° 0 mm 2 mps 732 mmHg 97%
    02:00 +9°C° 0 mm 2 mps 732 mmHg 97%
    03:00 +9°C° 0 mm 2 mps 733 mmHg 96%
    04:00 +9°C° 0 mm 2 mps 733 mmHg 95%
    05:00 +9°C° 0 mm 2 mps 733 mmHg 94%
    06:00 +10°C° 0 mm 2 mps 733 mmHg 88%
    07:00 +11°C° 0 mm 3 mps 734 mmHg 82%
    08:00 +12°C° 0 mm 3 mps 734 mmHg 76%
    09:00 +14°C° 0 mm 3 mps 734 mmHg 67%
    10:00 +16°C° 0 mm 3 mps 734 mmHg 58%
    11:00 +18°C° 0 mm 3 mps 734 mmHg 50%
    12:00 +18°C° 0 mm 3 mps 733 mmHg 48%
    13:00 +19°C° 0 mm 3 mps 733 mmHg 47%
    14:00 +20°C° 0 mm 3 mps 733 mmHg 45%
    15:00 +19°C° 0 mm 3 mps 733 mmHg 48%
    16:00 +19°C° 0 mm 3 mps 733 mmHg 50%
    17:00 +19°C° 0 mm 4 mps 732 mmHg 52%
    18:00 +17°C° 0 mm 3 mps 732 mmHg 60%
    19:00 +16°C° 0 mm 3 mps 732 mmHg 68%
    20:00 +14°C° 0 mm 2 mps 732 mmHg 77%
    21:00 +14°C° 0.1 mm 2 mps 732 mmHg 80%
    22:00 +12°C° 0.1 mm 3 mps 732 mmHg 84%
    23:00 +12°C° 0.1 mm 3 mps 733 mmHg 88%

    27 May, Monday

    Time Temperature Precipitation Wind Pressure Humidity
    00:00 +11°C° 0.5 mm 3 mps 733 mmHg 89%
    01:00 +10°C° 0.5 mm 3 mps 733 mmHg 91%
    02:00 +8°C° 0.5 mm 4 mps 733 mmHg 93%
    03:00 +8°C° 0 mm 4 mps 733 mmHg 93%
    04:00 +7°C° 0 mm 4 mps 733 mmHg 92%
    05:00 +7°C° 0 mm 5 mps 734 mmHg 92%
    06:00 +8°C° 0.1 mm 5 mps 734 mmHg 86%
    07:00 +9°C° 0.1 mm 5 mps 734 mmHg 80%
    08:00 +10°C° 0.1 mm 5 mps 734 mmHg 74%
    09:00 +12°C° 0 mm 5 mps 735 mmHg 70%
    10:00 +12°C° 0 mm 5 mps 735 mmHg 67%
    11:00 +13°C° 0 mm 5 mps 735 mmHg 63%
    12:00 +14°C° 0 mm 5 mps 736 mmHg 59%
    13:00 +16°C° 0 mm 5 mps 736 mmHg 54%
    14:00 +17°C° 0 mm 5 mps 736 mmHg 49%
    15:00 +17°C° 0 mm 5 mps 736 mmHg 51%
    16:00 +18°C° 0 mm 4 mps 736 mmHg 52%
    17:00 +18°C° 0 mm 4 mps 736 mmHg 53%
    18:00 +17°C° 0 mm 3 mps 736 mmHg 61%
    19:00 +14°C° 0 mm 3 mps 736 mmHg 70%
    20:00 +14°C° 0 mm 2 mps 736 mmHg 78%
    21:00 +14°C° 0 mm 2 mps 736 mmHg 81%
    22:00 +13°C° 0 mm 3 mps 736 mmHg 84%
    23:00 +13°C° 0 mm 3 mps 736 mmHg 86%

    28 May, Tuesday

    Time Temperature Precipitation Wind Pressure Humidity
    00:00 +13°C° 0.3 mm 3 mps 736 mmHg 90%
    01:00 +13°C° 0.3 mm 3 mps 736 mmHg 93%
    02:00 +13°C° 0.3 mm 3 mps 736 mmHg 96%
    03:00 +13°C° 0.1 mm 3 mps 737 mmHg 96%
    04:00 +13°C° 0.1 mm 3 mps 737 mmHg 96%
    05:00 +14°C° 0.1 mm 3 mps 737 mmHg 96%
    06:00 +14°C° 0 mm 3 mps 737 mmHg 93%
    07:00 +16°C° 0 mm 3 mps 738 mmHg 91%
    08:00 +16°C° 0 mm 3 mps 738 mmHg 89%
    09:00 +18°C° 0 mm 3 mps 738 mmHg 79%
    10:00 +20°C° 0 mm 3 mps 738 mmHg 68%
    11:00 +22°C° 0 mm 4 mps 739 mmHg 58%
    12:00 +22°C° 0 mm 3 mps 739 mmHg 56%
    13:00 +24°C° 0 mm 3 mps 739 mmHg 55%
    14:00 +24°C° 0 mm 2 mps 739 mmHg 53%
    15:00 +24°C° 0.1 mm 2 mps 739 mmHg 58%
    16:00 +23°C° 0.1 mm 2 mps 739 mmHg 63%
    17:00 +23°C° 0.1 mm 1 mps 739 mmHg 67%
    18:00 +22°C° 0.9 mm 1 mps 738 mmHg 77%
    19:00 +20°C° 0.9 mm 1 mps 738 mmHg 86%
    20:00 +18°C° 0.9 mm 1 mps 738 mmHg 95%
    21:00 +17°C° 1.2 mm 2 mps 738 mmHg 95%
    22:00 +17°C° 1.2 mm 2 mps 738 mmHg 96%
    23:00 +17°C° 1.2 mm 2 mps 738 mmHg 96%

    29 May, Wednesday

    Time Temperature Precipitation Wind Pressure Humidity
    00:00 +17°C° 0 mm 2 mps 738 mmHg 96%
    01:00 +17°C° 0 mm 3 mps 738 mmHg 96%
    02:00 +16°C° 0 mm 3 mps 738 mmHg 96%
    03:00 +17°C° 0 mm 3 mps 738 mmHg 96%
    04:00 +17°C° 0 mm 3 mps 738 mmHg 96%
    05:00 +17°C° 0 mm 3 mps 737 mmHg 96%
    06:00 +18°C° 0 mm 4 mps 737 mmHg 91%
    07:00 +20°C° 0 mm 4 mps 737 mmHg 86%
    08:00 +21°C° 0 mm 4 mps 737 mmHg 81%
    09:00 +23°C° 0 mm 5 mps 737 mmHg 71%
    10:00 +25°C° 0 mm 5 mps 737 mmHg 60%
    11:00 +27°C° 0 mm 6 mps 737 mmHg 50%
    12:00 +27°C° 0.1 mm 6 mps 736 mmHg 50%
    13:00 +28°C° 0.1 mm 6 mps 736 mmHg 51%
    14:00 +28°C° 0.1 mm 6 mps 736 mmHg 52%
    15:00 +27°C° 0.4 mm 5 mps 736 mmHg 59%
    16:00 +26°C° 0.4 mm 5 mps 736 mmHg 67%
    17:00 +23°C° 0.4 mm 5 mps 736 mmHg 75%
    18:00 +22°C° 0.4 mm 4 mps 736 mmHg 79%
    19:00 +21°C° 0.4 mm 4 mps 736 mmHg 82%
    20:00 +20°C° 0.4 mm 3 mps 736 mmHg 86%
    21:00 +20°C° 0.1 mm 3 mps 736 mmHg 87%
    22:00 +19°C° 0.1 mm 3 mps 737 mmHg 88%
    23:00 +19°C° 0.1 mm 3 mps 737 mmHg 89%
    Show more